owner,sensor,date,latitude,longitude,vertical_datum,sea_water_temperature,qcFlag 
ENP,ioos.station.NOAA.NDBC:WPLF1:1,2017-11-01T16:00:00Z,25.7100,-81.2490,1.0,21.11,2 
ENP,ioos.station.NOAA.NDBC:WPLF1:1,2017-11-02T05:00:00Z,25.7100,-81.2490,1.0,22.4,2 
ENP,ioos.station.NOAA.NDBC:WPLF1:1,2017-11-02T16:00:00Z,25.7100,-81.2490,1.0,22.18,2 
ENP,ioos.station.NOAA.NDBC:WPLF1:1,2017-11-03T05:00:00Z,25.7100,-81.2490,1.0,23.63,2 
ENP,ioos.station.NOAA.NDBC:WPLF1:1,2017-11-03T16:00:00Z,25.7100,-81.2490,1.0,23.28,2 
ENP,ioos.station.NOAA.NDBC:WPLF1:1,2017-11-04T05:00:00Z,25.7100,-81.2490,1.0,24.1,2 
ENP,ioos.station.NOAA.NDBC:WPLF1:1,2017-11-04T16:00:00Z,25.7100,-81.2490,1.0,23.83,2 
ENP,ioos.station.NOAA.NDBC:WPLF1:1,2017-11-05T06:00:00Z,25.7100,-81.2490,1.0,24.89,2 
ENP,ioos.station.NOAA.NDBC:WPLF1:1,2017-11-05T17:00:00Z,25.7100,-81.2490,1.0,24.49,2 
ENP,ioos.station.NOAA.NDBC:WPLF1:1,2017-11-06T06:00:00Z,25.7100,-81.2490,1.0,25.4,2 
ENP,ioos.station.NOAA.NDBC:WPLF1:1,2017-11-06T17:00:00Z,25.7100,-81.2490,1.0,25.33,2 
ENP,ioos.station.NOAA.NDBC:WPLF1:1,2017-11-07T06:00:00Z,25.7100,-81.2490,1.0,26.11,2 
ENP,ioos.station.NOAA.NDBC:WPLF1:1,2017-11-07T17:00:00Z,25.7100,-81.2490,1.0,26.0,2 
ENP,ioos.station.NOAA.NDBC:WPLF1:1,2017-11-08T06:00:00Z,25.7100,-81.2490,1.0,26.64,2 
ENP,ioos.station.NOAA.NDBC:WPLF1:1,2017-11-09T06:00:00Z,25.7100,-81.2490,1.0,26.81,2 
ENP,ioos.station.NOAA.NDBC:WPLF1:1,2017-11-09T17:00:00Z,25.7100,-81.2490,1.0,26.81,2 
ENP,ioos.station.NOAA.NDBC:WPLF1:1,2017-11-10T06:00:00Z,25.7100,-81.2490,1.0,27.27,2 
ENP,ioos.station.NOAA.NDBC:WPLF1:1,2017-11-10T17:00:00Z,25.7100,-81.2490,1.0,27.27,2 
ENP,ioos.station.NOAA.NDBC:WPLF1:1,2017-11-11T06:00:00Z,25.7100,-81.2490,1.0,27.04,2 
ENP,ioos.station.NOAA.NDBC:WPLF1:1,2017-11-11T17:00:00Z,25.7100,-81.2490,1.0,26.44,2 
ENP,ioos.station.NOAA.NDBC:WPLF1:1,2017-11-12T06:00:00Z,25.7100,-81.2490,1.0,26.25,2 
ENP,ioos.station.NOAA.NDBC:WPLF1:1,2017-11-12T17:00:00Z,25.7100,-81.2490,1.0,25.91,2 
ENP,ioos.station.NOAA.NDBC:WPLF1:1,2017-11-13T06:00:00Z,25.7100,-81.2490,1.0,26.16,2 
ENP,ioos.station.NOAA.NDBC:WPLF1:1,2017-11-13T17:00:00Z,25.7100,-81.2490,1.0,25.8,2 
ENP,ioos.station.NOAA.NDBC:WPLF1:1,2017-11-14T06:00:00Z,25.7100,-81.2490,1.0,25.63,2 
ENP,ioos.station.NOAA.NDBC:WPLF1:1,2017-11-14T17:00:00Z,25.7100,-81.2490,1.0,25.15,2 
ENP,ioos.station.NOAA.NDBC:WPLF1:1,2017-11-15T06:00:00Z,25.7100,-81.2490,1.0,25.27,2 
ENP,ioos.station.NOAA.NDBC:WPLF1:1,2017-11-15T17:00:00Z,25.7100,-81.2490,1.0,24.43,2 
ENP,ioos.station.NOAA.NDBC:WPLF1:1,2017-11-16T06:00:00Z,25.7100,-81.2490,1.0,24.38,2 
ENP,ioos.station.NOAA.NDBC:WPLF1:1,2017-11-16T17:00:00Z,25.7100,-81.2490,1.0,23.82,2 
ENP,ioos.station.NOAA.NDBC:WPLF1:1,2017-11-17T06:00:00Z,25.7100,-81.2490,1.0,24.09,2 
ENP,ioos.station.NOAA.NDBC:WPLF1:1,2017-11-17T17:00:00Z,25.7100,-81.2490,1.0,23.67,2 
ENP,ioos.station.NOAA.NDBC:WPLF1:1,2017-11-18T06:00:00Z,25.7100,-81.2490,1.0,23.86,2 
ENP,ioos.station.NOAA.NDBC:WPLF1:1,2017-11-18T17:00:00Z,25.7100,-81.2490,1.0,23.46,2 
ENP,ioos.station.NOAA.NDBC:WPLF1:1,2017-11-19T06:00:00Z,25.7100,-81.2490,1.0,23.91,2 
ENP,ioos.station.NOAA.NDBC:WPLF1:1,2017-11-24T17:00:00Z,25.7100,-81.2490,1.0,25.54,2 
ENP,ioos.station.NOAA.NDBC:WPLF1:1,2017-11-25T06:00:00Z,25.7100,-81.2490,1.0,25.17,2 
ENP,ioos.station.NOAA.NDBC:WPLF1:1,2017-11-26T06:00:00Z,25.7100,-81.2490,1.0,25.07,2 
ENP,ioos.station.NOAA.NDBC:WPLF1:1,2017-11-26T17:00:00Z,25.7100,-81.2490,1.0,24.53,2 
ENP,ioos.station.NOAA.NDBC:WPLF1:1,2017-11-27T06:00:00Z,25.7100,-81.2490,1.0,24.38,2 
ENP,ioos.station.NOAA.NDBC:WPLF1:1,2017-11-28T06:00:00Z,25.7100,-81.2490,1.0,24.02,2 
ENP,ioos.station.NOAA.NDBC:WPLF1:1,2017-11-28T17:00:00Z,25.7100,-81.2490,1.0,23.74,2 
ENP,ioos.station.NOAA.NDBC:WPLF1:1,2017-11-29T06:00:00Z,25.7100,-81.2490,1.0,24.44,2 
ENP,ioos.station.NOAA.NDBC:WPLF1:1,2017-11-29T17:00:00Z,25.7100,-81.2490,1.0,24.06,2 
ENP,ioos.station.NOAA.NDBC:WPLF1:1,2017-11-30T06:00:00Z,25.7100,-81.2490,1.0,24.63,2 
ENP,ioos.station.NOAA.NDBC:WPLF1:1,2017-11-30T17:00:00Z,25.7100,-81.2490,1.0,24.17,2 
 
DISCLAIMER: The Gulf of Mexico Coastal and Ocean Observing (GCOOS) Data Portal aggregates data from the regional data providers for the convenience of all data users. Data published on this website should not be used for navigation or certain other uses as we cannot guarantee data accuracy or availability. The data and delivery services are provided 'as is' without warranty of any kind. Data Source: Gulf of Mexico Coastal Ocean Observing System Data Portal (http://data.gcoos.org/) 
